Location: Newark
(45.0500°N, 41.9667°E)
Time: 04:04:25
(UTC+00:00)

Starlink (trailer) - Pass Details

Date: 31 July 2019
Orbit: 549 x 550 km, 53.0° (Epoch: 20 August)

Event Time Altitude Azimuth Distance (km) Brightness Sun altitude
Rises 23:45:37 0° 303° (WNW) 2,723 7.1 -18.5°
Reaches altitude 10° 23:47:52 10° 305° (NW) 1,827 6.2 -18.3°
Maximum altitude 23:52:00 70° 29° (NNE) 589 3.9 -17.8°
Drops below altitude 10° 23:56:08 10° 114° (ESE) 1,820 6.4 -17.4°
Sets 23:58:22 0° 117° (ESE) 2,712 7.3 -17.1°
